Airfield :
LOGIN :

Register | Disclaimer

   EN    FR    IT 

 










Legend :    VFR   Marginal VFR   IFR   Intensive IFR   Very Intensive IFR
Visi :
Ceiling :
>= 8 km
>= 3000ft
5 to 8 km
1000 to 3000 ft
1500m to 5 km
500 to 1000 ft
800 to 1500m
200 to 500 ft
< 800m
< 200 ft
Symbols :   Thunderstorms  Fog  Heavy snow  Heavy precipitations  Wind > 20 kt
SIGMETs :     Misc.  Thunderstorms  Icing  Turbulence  Mountain Waves  Volcanic Ashes






- Airport Elevation : 158 ft
- IATA code : QAR


EHDL - Deelen Airbase

CURRENT METAR :
  • 152055Z AUTO 18001KT 5000 BR OVC040 M00/M00 Q1030 WHT

EXPIRED METARs :
  • 152025Z AUTO 11002KT 5000 BR BKN031 OVC037 M00/M00 Q1030 WHT
  • 151955Z AUTO 00000KT 5000 BR BKN033 OVC037 M00/M00 Q1030 WHT
  • 151925Z AUTO 05001KT 6000 BR FEW034 OVC041 M00/M00 Q1029 WHT
  • 151855Z AUTO VRB01KT 6000 BR OVC045 M00/M00 Q1029 WHT
  • 151825Z AUTO 18002KT 6000 BR OVC044 M00/M01 Q1029 WHT

Expired Forecast.



MET'MAP, your aeronautical weather chart ! - Copyright ORBIFLY December 2007 - Disclaimer

ORBIFLY MET'MAP TEAM :

Programming & Development : Alexandra Zaïnal
Concept & original design : Baudouin d'Aumeries
Assistance for programming : Marc-Olivier Méhu
Technical & hardware support : Manuel Goepfert

Contact : metmap@orbifly.com




SOURCES & CREDITS :

   NOAA